Location: De Greiden
(52.9496°N, 5.9137°E)
Time: 22:39:43
(UTC+00:00)

Cosmos 2344 - Pass Details

Date: 24 January 2021
Orbit: 1243 x 2999 km, 63.3° (Epoch: 01 March)

Event Time Altitude Azimuth Distance (km) Brightness Sun altitude
Rises 17:59:45 0° 311° (NW) 4,434 7.0 -16.7°
Reaches altitude 10° 18:02:19 10° 312° (NW) 3,576 6.5 -17.1°
Maximum altitude 18:11:11 87° 43° (NE) 1,775 4.2 -18.4°
Drops below altitude 10° 18:23:32 10° 134° (SE) 4,855 6.2 -20.3°
Sets 18:27:38 0° 135° (SE) 6,097 6.7 -20.9°
